FW0428 Weather Reports


time (UTC)temp
F
wind
direction
speed
knots
gust
knots
rain 1hr
in
rain 24hr
in
rain mn
in
humidity
%
barometer
mb
20260509170145 81 82 0.9 3.5 0.00 0.00 0.00 75 1008.9
20260509164702 81 131 0.0 3.5 0.00 0.00 0.00 74 1009.1
20260509161611 81 91 0.0 1.7 0.00 0.00 0.00 75 1009.0
20260509160146 80 119 0.0 1.7 0.00 0.00 0.00 79 1008.9
20260509153108 77 282 0.0 0.0 0.00 0.00 0.00 85 1009.0
20260509151617 74 87 0.0 2.6 0.00 0.00 0.00 90 1008.8
20260509150112 73 102 0.0 0.0 0.00 0.00 0.00 92 1009.1
20260509144616 72 102 0.0 0.0 0.00 0.00 0.00 92 1009.3
20260509141519 72 102 0.0 0.0 0.00 0.00 0.00 92 1009.4
20260509134629 72 115 0.0 0.9 0.00 0.00 0.00 93 1009.2
20260509133114 71 90 0.0 0.9 0.00 0.00 0.00 94 1009.0
20260509131559 71 91 0.0 0.0 0.00 0.00 0.00 94 1009.3
20260509130120 71 82 0.0 0.9 0.00 0.00 0.00 94 1009.2
20260509124638 70 84 0.0 1.7 0.00 0.00 0.00 94 1009.1
20260509111539 69 94 0.0 1.7 0.00 0.00 0.00 94 1008.0
20260509110047 69 90 0.0 0.9 0.00 0.00 0.00 94 1007.5
20260509104558 69 297 0.0 0.0 0.00 0.00 0.00 94 1007.4
20260509103111 69 102 0.0 0.9 0.00 0.00 0.00 94 1007.6
20260509091550 69 142 0.0 0.0 0.00 0.00 0.00 92 1008.3
20260509074643 70 259 0.0 0.0 0.00 0.00 0.00 90 1009.4
20260509070028 70 257 0.0 0.9 0.00 0.00 0.00 89 1009.3
20260509064617 70 212 0.0 1.7 0.00 0.00 0.00 88 1009.2
20260509063043 70 252 0.0 0.9 0.00 0.00 0.00 88 1008.6
20260509061526 71 228 0.0 1.7 0.00 0.00 0.00 87 1009.2
20260509060106 71 267 0.0 0.0 0.00 0.00 0.00 87 1009.8
20260509054556 71 267 0.0 0.0 0.00 0.00 0.00 86 1010.1
20260509053005 71 271 0.0 0.0 0.00 0.00 0.00 86 1010.2
20260509051517 71 267 0.0 0.0 0.00 0.00 0.00 86 1010.0
20260509050109 71 266 0.0 0.0 0.00 0.00 0.00 86 1009.9
20260509040109 72 273 0.0 0.0 0.00 0.00 0.00 84 1009.1
20260509034636 72 255 0.0 0.9 0.00 0.00 0.00 84 1008.8
20260509024609 72 277 0.0 1.7 0.00 0.00 0.00 81 1008.4
20260509021554 73 211 0.0 0.9 0.00 0.00 0.00 80 1008.1
20260509020011 73 265 0.0 0.0 0.00 0.00 0.00 79 1008.0
20260509003157 75 250 0.0 0.0 0.00 0.00 0.00 72 1007.3
20260508234650 77 129 0.0 2.6 0.00 0.00 0.00 69 1007.2
20260508221519 79 298 0.0 1.7 0.00 0.00 0.00 62 1008.4
20260508220155 80 192 0.0 0.9 0.00 0.00 0.00 62 1008.3
20260508214655 78 90 0.0 2.6 0.00 0.00 0.00 62 1008.6
20260508211659 80 279 0.0 1.7 0.00 0.00 0.00 61 1008.4
20260508210159 80 43 0.0 1.7 0.00 0.00 0.00 61 1008.5
20260508204615 80 257 0.0 1.7 0.00 0.00 0.00 60 1008.8
20260508184700 78 243 0.9 3.5 0.00 0.00 0.00 58 1010.0
20260508183113 78 270 0.0 1.7 0.00 0.00 0.00 57 1010.4
20260508174614 77 119 0.0 2.6 0.00 0.00 0.00 61 1011.2